• In Russia
  • List of Countries
  • For 7 days
  • Water Temperature
  • Satellite Maps
  • Weather Map
  • Weather Widgets
  • user-avatar
    Login

    Hourly Weather Dubki

    Today, 19 October, Friday

    Time Temperature Precipitation Wind Pressure Humidity
    00:00 +7°C° 0 mm 3 mps 755 mmHg 69%
    01:00 +7°C° 0 mm 3 mps 755 mmHg 71%
    02:00 +7°C° 0 mm 3 mps 755 mmHg 74%
    03:00 +7°C° 0 mm 3 mps 755 mmHg 76%
    04:00 +5°C° 0 mm 3 mps 754 mmHg 79%
    05:00 +5°C° 0 mm 3 mps 754 mmHg 82%
    06:00 +5°C° 0 mm 3 mps 754 mmHg 85%
    07:00 +7°C° 0 mm 4 mps 754 mmHg 82%
    08:00 +8°C° 0 mm 4 mps 754 mmHg 79%
    09:00 +9°C° 0 mm 5 mps 753 mmHg 76%
    10:00 +12°C° 0 mm 5 mps 753 mmHg 72%
    11:00 +13°C° 0 mm 5 mps 753 mmHg 67%
    12:00 +14°C° 0 mm 5 mps 753 mmHg 63%
    13:00 +15°C° 0 mm 5 mps 753 mmHg 62%
    14:00 +15°C° 0 mm 5 mps 752 mmHg 62%
    15:00 +15°C° 0 mm 5 mps 752 mmHg 61%
    16:00 +14°C° 0 mm 5 mps 752 mmHg 65%
    17:00 +13°C° 0 mm 5 mps 752 mmHg 69%
    18:00 +12°C° 0 mm 4 mps 752 mmHg 73%
    19:00 +12°C° 0 mm 4 mps 752 mmHg 72%
    20:00 +12°C° 0 mm 5 mps 752 mmHg 71%
    21:00 +13°C° 0 mm 5 mps 752 mmHg 70%
    22:00 +12°C° 0 mm 4 mps 751 mmHg 70%
    23:00 +12°C° 0 mm 4 mps 751 mmHg 70%

    Tomorrow, 20 October, Saturday

    Time Temperature Precipitation Wind Pressure Humidity
    00:00 +12°C° 0 mm 4 mps 751 mmHg 71%
    01:00 +12°C° 0 mm 4 mps 751 mmHg 71%
    02:00 +12°C° 0 mm 4 mps 750 mmHg 71%
    03:00 +11°C° 0 mm 4 mps 750 mmHg 71%
    04:00 +11°C° 0 mm 4 mps 750 mmHg 73%
    05:00 +10°C° 0 mm 4 mps 750 mmHg 74%
    06:00 +10°C° 0 mm 4 mps 750 mmHg 76%
    07:00 +9°C° 0 mm 5 mps 750 mmHg 74%
    08:00 +10°C° 0 mm 5 mps 750 mmHg 72%
    09:00 +10°C° 0 mm 5 mps 750 mmHg 70%
    10:00 +12°C° 0.1 mm 5 mps 750 mmHg 71%
    11:00 +12°C° 0.1 mm 4 mps 750 mmHg 72%
    12:00 +13°C° 0.1 mm 4 mps 750 mmHg 73%
    13:00 +12°C° 0.1 mm 4 mps 750 mmHg 74%
    14:00 +12°C° 0.1 mm 4 mps 750 mmHg 74%
    15:00 +12°C° 0.1 mm 4 mps 750 mmHg 75%
    16:00 +11°C° 0 mm 3 mps 750 mmHg 77%
    17:00 +10°C° 0 mm 3 mps 751 mmHg 78%
    18:00 +9°C° 0 mm 2 mps 751 mmHg 79%
    19:00 +8°C° 0 mm 2 mps 751 mmHg 78%
    20:00 +8°C° 0 mm 2 mps 752 mmHg 77%
    21:00 +7°C° 0 mm 2 mps 752 mmHg 76%
    22:00 +6°C° 0 mm 2 mps 752 mmHg 78%
    23:00 +6°C° 0 mm 2 mps 753 mmHg 81%

    Day after tomorrow, 21 October, Sunday

    Time Temperature Precipitation Wind Pressure Humidity
    00:00 +6°C° 0 mm 2 mps 753 mmHg 83%
    01:00 +5°C° 0 mm 2 mps 753 mmHg 85%
    02:00 +5°C° 0 mm 2 mps 754 mmHg 86%
    03:00 +5°C° 0 mm 2 mps 754 mmHg 88%
    04:00 +4°C° 0 mm 2 mps 754 mmHg 89%
    05:00 +4°C° 0 mm 2 mps 754 mmHg 90%
    06:00 +5°C° 0 mm 1 mps 755 mmHg 91%
    07:00 +5°C° 0 mm 2 mps 755 mmHg 86%
    08:00 +6°C° 0 mm 2 mps 756 mmHg 81%
    09:00 +7°C° 0 mm 2 mps 756 mmHg 76%
    10:00 +8°C° 0 mm 2 mps 756 mmHg 71%
    11:00 +9°C° 0 mm 2 mps 756 mmHg 65%
    12:00 +9°C° 0 mm 2 mps 756 mmHg 60%
    13:00 +9°C° 0 mm 2 mps 756 mmHg 59%
    14:00 +9°C° 0 mm 2 mps 757 mmHg 58%
    15:00 +9°C° 0 mm 2 mps 757 mmHg 57%
    16:00 +8°C° 0 mm 2 mps 757 mmHg 62%
    17:00 +7°C° 0 mm 2 mps 757 mmHg 66%
    18:00 +6°C° 0 mm 2 mps 757 mmHg 71%
    19:00 +6°C° 0 mm 2 mps 757 mmHg 73%
    20:00 +5°C° 0 mm 2 mps 758 mmHg 76%
    21:00 +6°C° 0 mm 1 mps 758 mmHg 78%
    22:00 +5°C° 0 mm 1 mps 758 mmHg 79%
    23:00 +5°C° 0 mm 1 mps 758 mmHg 81%

    22 October, Monday

    Time Temperature Precipitation Wind Pressure Humidity
    00:00 +5°C° 0 mm 1 mps 758 mmHg 82%
    01:00 +5°C° 0 mm 1 mps 758 mmHg 83%
    02:00 +4°C° 0 mm 1 mps 758 mmHg 85%
    03:00 +4°C° 0 mm 1 mps 758 mmHg 86%
    04:00 +4°C° 0 mm 1 mps 758 mmHg 87%
    05:00 +4°C° 0 mm 1 mps 759 mmHg 88%
    06:00 +4°C° 0 mm 1 mps 759 mmHg 88%
    07:00 +4°C° 0 mm 1 mps 759 mmHg 83%
    08:00 +4°C° 0 mm 2 mps 759 mmHg 79%
    09:00 +5°C° 0 mm 2 mps 759 mmHg 74%
    10:00 +6°C° 0 mm 2 mps 759 mmHg 69%
    11:00 +7°C° 0 mm 2 mps 759 mmHg 64%
    12:00 +8°C° 0 mm 2 mps 759 mmHg 59%
    13:00 +8°C° 0 mm 2 mps 759 mmHg 58%
    14:00 +8°C° 0 mm 2 mps 758 mmHg 57%
    15:00 +8°C° 0 mm 2 mps 758 mmHg 56%
    16:00 +7°C° 0 mm 2 mps 758 mmHg 61%
    17:00 +6°C° 0 mm 2 mps 758 mmHg 65%
    18:00 +5°C° 0 mm 2 mps 758 mmHg 70%
    19:00 +5°C° 0 mm 2 mps 758 mmHg 72%
    20:00 +4°C° 0 mm 2 mps 758 mmHg 74%
    21:00 +4°C° 0 mm 2 mps 758 mmHg 76%
    22:00 +4°C° 0 mm 2 mps 758 mmHg 77%
    23:00 +3°C° 0 mm 2 mps 758 mmHg 78%

    23 October, Tuesday

    Time Temperature Precipitation Wind Pressure Humidity
    00:00 +3°C° 0 mm 2 mps 758 mmHg 79%
    01:00 +3°C° 0 mm 2 mps 758 mmHg 80%
    02:00 +2°C° 0 mm 2 mps 758 mmHg 81%
    03:00 +2°C° 0 mm 2 mps 757 mmHg 81%
    04:00 +2°C° 0 mm 2 mps 757 mmHg 82%
    05:00 +2°C° 0 mm 2 mps 757 mmHg 82%
    06:00 +2°C° 0 mm 2 mps 757 mmHg 82%
    07:00 +3°C° 0 mm 2 mps 757 mmHg 76%
    08:00 +3°C° 0 mm 3 mps 757 mmHg 70%
    09:00 +4°C° 0 mm 3 mps 757 mmHg 64%
    10:00 +5°C° 0 mm 3 mps 756 mmHg 58%
    11:00 +7°C° 0 mm 4 mps 756 mmHg 52%
    12:00 +8°C° 0 mm 4 mps 756 mmHg 45%
    13:00 +8°C° 0 mm 4 mps 755 mmHg 45%
    14:00 +9°C° 0 mm 3 mps 755 mmHg 44%
    15:00 +10°C° 0 mm 3 mps 754 mmHg 43%
    16:00 +9°C° 0 mm 3 mps 754 mmHg 46%
    17:00 +8°C° 0 mm 3 mps 754 mmHg 48%
    18:00 +8°C° 0 mm 3 mps 753 mmHg 51%
    19:00 +7°C° 0 mm 4 mps 753 mmHg 52%
    20:00 +7°C° 0 mm 4 mps 752 mmHg 54%
    21:00 +7°C° 0 mm 4 mps 752 mmHg 56%
    22:00 +7°C° 0 mm 4 mps 751 mmHg 57%
    23:00 +7°C° 0 mm 4 mps 751 mmHg 59%

    24 October, Wednesday

    Time Temperature Precipitation Wind Pressure Humidity
    00:00 +7°C° 0 mm 4 mps 750 mmHg 61%
    01:00 +8°C° 0 mm 5 mps 750 mmHg 61%
    02:00 +8°C° 0 mm 5 mps 749 mmHg 61%
    03:00 +8°C° 0 mm 5 mps 749 mmHg 62%
    04:00 +8°C° 0 mm 5 mps 749 mmHg 61%
    05:00 +9°C° 0 mm 6 mps 748 mmHg 59%
    06:00 +9°C° 0 mm 6 mps 748 mmHg 58%
    07:00 +10°C° 0 mm 6 mps 748 mmHg 59%
    08:00 +10°C° 0 mm 7 mps 748 mmHg 59%
    09:00 +11°C° 0 mm 7 mps 748 mmHg 59%
    10:00 +11°C° 0.1 mm 7 mps 748 mmHg 62%
    11:00 +11°C° 0.1 mm 7 mps 748 mmHg 64%
    12:00 +12°C° 0.1 mm 7 mps 748 mmHg 67%
    13:00 +11°C° 0 mm 6 mps 747 mmHg 68%
    14:00 +12°C° 0 mm 5 mps 747 mmHg 68%
    15:00 +12°C° 0 mm 5 mps 747 mmHg 69%
    16:00 +12°C° 0 mm 4 mps 747 mmHg 68%
    17:00 +11°C° 0 mm 4 mps 747 mmHg 67%
    18:00 +11°C° 0 mm 3 mps 747 mmHg 67%
    19:00 +11°C° 0 mm 3 mps 747 mmHg 67%
    20:00 +11°C° 0 mm 3 mps 747 mmHg 67%
    21:00 +11°C° 0 mm 3 mps 747 mmHg 68%
    22:00 +10°C° 0 mm 4 mps 747 mmHg 66%
    23:00 +10°C° 0 mm 4 mps 747 mmHg 65%
    Show more